Weather reports worldwide

Advertisment
Guernsey, United Kingdom (3894): temperature & dewpoint: 18.11.2020 23:00:00 - 24.11.2020 23:00:00 (GMT)Guernsey, United Kingdom (3894): temperature -20cm & temperature -100cm: 18.11.2020 23:00:00 - 24.11.2020 23:00:00 (GMT)Guernsey, United Kingdom (3894): wind speed & gusts: 18.11.2020 23:00:00 - 24.11.2020 23:00:00 (GMT)Guernsey, United Kingdom (3894): wind direction: 18.11.2020 23:00:00 - 24.11.2020 23:00:00 (GMT)Guernsey, United Kingdom (3894): reduced air pressure: 18.11.2020 23:00:00 - 24.11.2020 23:00:00 (GMT)Guernsey, United Kingdom (3894): visibility: 18.11.2020 23:00:00 - 24.11.2020 23:00:00 (GMT)Guernsey, United Kingdom (3894): precipitation: 18.11.2020 23:00:00 - 24.11.2020 23:00:00 (GMT)
Date & Time tt [°C] td [°C] tt -20cm [°C] tt -100cm [°C] ff [km/h] ff [kn] fx [km/h] fx [kn] dd ppp [hPa] vv [km] rr [mm]
24.11.2020 23:00:00 11,7 10,7 - - 26 14 - - SSE 1010,9 10 -
24.11.2020 22:00:00 11,8 10,6 - - 29 16 - - S 1011,4 15 -
24.11.2020 21:00:00 11,9 10,5 - - 26 14 - - S 1011,6 10 -
24.11.2020 20:00:00 12,0 10,4 - - 28 15 - - S 1011,9 35 -
24.11.2020 19:00:00 11,9 10,1 - - 26 14 - - S 1012,1 10 -
24.11.2020 18:00:00 11,9 10,2 - - 24 13 - - S 1012,5 10 0,0
24.11.2020 17:00:00 12,1 9,9 - - 26 14 - - S 1012,7 10 -
24.11.2020 16:00:00 11,5 8,2 - - 28 15 - - SSE 1013,2 10 -
24.11.2020 15:00:00 11,2 7,7 - - 26 14 - - S 1014,0 40 -
24.11.2020 14:00:00 11,2 7,4 - - 26 14 - - SSE 1014,5 10 -
24.11.2020 13:00:00 11,7 6,4 - - 29 16 - - SSE 1015,8 35 -
24.11.2020 12:00:00 11,7 6,4 - - 28 15 - - SSE 1016,7 10 0,0
24.11.2020 11:00:00 10,9 7,0 - - 26 14 - - S 1018,0 10 -
24.11.2020 10:00:00 10,4 7,1 - - 29 16 - - S 1018,7 10 -
24.11.2020 09:00:00 10,0 7,8 11,5 12,7 29 16 - - S 1019,0 10 -
24.11.2020 08:00:00 9,7 7,6 - - 28 15 - - S 1019,2 10 -
24.11.2020 07:00:00 9,5 7,1 - - 26 14 - - S 1019,6 10 -
24.11.2020 06:00:00 9,6 7,3 - - 24 13 - - S 1020,1 10 0,0
24.11.2020 05:00:00 9,6 7,4 - - 21 11 - - S 1021,0 10 -
24.11.2020 04:00:00 9,8 7,6 - - 22 12 - - S 1021,8 10 -
24.11.2020 03:00:00 10,1 7,8 - - 24 13 - - S 1022,7 10 -
24.11.2020 02:00:00 10,5 7,8 - - 24 13 - - S 1023,2 10 -
24.11.2020 01:00:00 10,9 7,6 - - 24 13 - - S 1024,1 50 -
24.11.2020 00:00:00 11,3 8,0 - - 26 14 - - SSW 1024,7 10 0,0
23.11.2020 23:00:00 11,2 7,4 - - 21 11 - - S 1025,4 10 -
23.11.2020 22:00:00 11,5 7,5 - - 22 12 - - SSW 1025,9 10 -
23.11.2020 21:00:00 11,6 7,2 - - 16 9 - - SSW 1026,2 10 -
23.11.2020 20:00:00 11,5 9,4 - - 15 8 - - SSW 1026,5 10 -
23.11.2020 19:00:00 11,8 9,4 - - 16 9 - - SSW 1026,6 50 -
23.11.2020 18:00:00 11,6 10,0 - - 13 7 - - SW 1026,9 10 -
23.11.2020 17:00:00 11,4 10,3 - - 13 7 - - WSW 1027,2 10 -
23.11.2020 16:00:00 11,2 10,2 - - 18 10 - - SW 1027,3 10 -
23.11.2020 15:00:00 11,8 10,4 - - 18 10 - - WSW 1027,4 55 -
23.11.2020 14:00:00 12,3 11,1 - - 13 7 - - WSW 1027,6 10 -
23.11.2020 13:00:00 11,8 10,7 - - 9 5 - - SW 1028,1 10 -
23.11.2020 12:00:00 11,2 10,3 - - 13 7 - - SW 1028,6 10 -
23.11.2020 11:00:00 11,0 10,4 - - 15 8 - - S 1029,2 10 -
23.11.2020 10:00:00 11,0 9,7 - - 9 5 - - SSE 1029,1 10 -
23.11.2020 09:00:00 10,9 10,2 11,5 12,7 11 6 - - SE 1028,8 10 -
23.11.2020 08:00:00 8,4 8,0 - - 9 5 - - SE 1028,8 10 -
23.11.2020 07:00:00 8,7 8,7 - - 8 4 - - E 1028,7 10 -
23.11.2020 06:00:00 9,0 9,0 - - 5 3 - - E 1028,6 10 -
23.11.2020 05:00:00 9,4 9,3 - - 8 4 - - NE 1028,5 10 -
23.11.2020 04:00:00 9,3 9,2 - - 11 6 - - NNE 1028,2 10 -
23.11.2020 03:00:00 9,9 9,8 - - 11 6 - - N 1028,0 12 -
23.11.2020 02:00:00 10,3 10,2 - - 9 5 - - NNE 1028,0 10 -
23.11.2020 01:00:00 10,4 10,0 - - 8 4 - - WNW 1028,3 10 -
23.11.2020 00:00:00 11,0 10,8 - - 5 3 - - NW 1028,2 10 -
22.11.2020 23:00:00 11,3 11,0 - - 16 9 - - W 1027,9 10 -
22.11.2020 22:00:00 11,2 11,0 - - 22 12 - - WSW 1028,0 10 -
22.11.2020 21:00:00 11,4 10,9 - - 22 12 - - W 1028,2 10 -
22.11.2020 20:00:00 11,5 11,2 - - 15 8 - - WSW 1028,2 10 -
22.11.2020 19:00:00 11,5 11,1 - - 16 9 - - WSW 1028,1 10 -
22.11.2020 18:00:00 11,4 11,1 - - 16 9 - - WSW 1027,8 8 -
22.11.2020 17:00:00 11,1 10,6 - - 15 8 - - W 1027,7 10 -
22.11.2020 16:00:00 11,3 10,2 - - 18 10 - - WSW 1027,5 10 -
22.11.2020 15:00:00 11,5 11,1 - - 16 9 - - WSW 1027,7 8 -
22.11.2020 14:00:00 11,5 11,2 - - 18 10 - - WSW 1027,9 7 -
22.11.2020 13:00:00 11,6 11,1 - - 15 8 - - W 1028,1 10 -
22.11.2020 12:00:00 11,7 11,3 - - 15 8 - - W 1028,3 10 -
22.11.2020 11:00:00 11,5 11,2 - - 11 6 - - W 1028,7 5 -
22.11.2020 10:00:00 11,5 11,2 - - 13 7 - - W 1028,3 10 -
22.11.2020 09:00:00 11,1 10,5 11,4 12,7 11 6 - - W 1028,1 9 -
22.11.2020 08:00:00 12,0 10,0 - - 16 9 - - WSW - 10 -
22.11.2020 07:00:00 11,5 10,6 - - 16 9 - - WSW 1028,2 10 -
22.11.2020 06:00:00 10,8 10,2 - - 13 7 - - SW 1028,0 10 -
22.11.2020 05:00:00 10,8 10,5 - - 18 10 - - W 1028,3 1,6 -
22.11.2020 04:00:00 11,4 9,9 - - 22 12 - - WSW 1027,9 10 -
22.11.2020 03:00:00 11,3 9,9 - - 29 16 - - WSW 1028,3 10 -
22.11.2020 02:00:00 11,8 9,8 - - 24 13 - - SW 1028,1 10 -
22.11.2020 01:00:00 11,8 9,5 - - 22 12 - - WSW 1028,3 30 -
22.11.2020 00:00:00 11,7 9,9 - - 24 13 - - SW 1028,5 10 -
21.11.2020 23:00:00 11,3 9,4 - - 18 10 - - WSW 1028,7 10 -
21.11.2020 22:00:00 11,5 9,5 - - 18 10 - - W 1029,0 10 -
21.11.2020 21:00:00 11,8 9,2 - - 21 11 - - WSW 1029,0 10 -
21.11.2020 20:00:00 12,1 8,1 - - 22 12 - - WSW 1029,3 10 -
21.11.2020 19:00:00 12,0 8,8 - - 21 11 - - WSW 1029,4 10 -
21.11.2020 18:00:00 11,8 8,1 - - 24 13 - - WSW 1029,5 10 -
21.11.2020 17:00:00 11,8 8,0 - - 24 13 - - WSW 1029,6 35 -
21.11.2020 16:00:00 12,0 7,8 - - 24 13 - - WSW 1029,3 10 -
21.11.2020 15:00:00 12,1 8,0 - - 26 14 - - WSW 1029,6 10 -
21.11.2020 14:00:00 12,0 8,2 - - 28 15 - - SW 1029,8 10 -
21.11.2020 13:00:00 11,9 8,5 - - 29 16 - - WSW 1030,1 40 -
21.11.2020 12:00:00 12,3 8,5 - - 31 17 - - SW 1030,7 35 -
21.11.2020 11:00:00 12,0 9,2 - - 28 15 - - SW 1031,3 10 -
21.11.2020 10:00:00 11,8 8,9 - - 28 15 - - SW 1031,2 10 -
21.11.2020 09:00:00 11,5 8,5 11,0 12,7 26 14 - - SW 1030,9 10 -
21.11.2020 08:00:00 11,4 8,5 - - 26 14 - - WSW 1031,0 10 -
21.11.2020 07:00:00 11,3 8,3 - - 28 15 - - SW 1031,1 10 -
21.11.2020 06:00:00 11,3 8,5 - - 24 13 - - SW 1031,2 10 -
21.11.2020 05:00:00 11,2 8,6 - - 28 15 - - SW 1031,2 10 -
21.11.2020 04:00:00 11,2 8,3 - - 26 14 - - SW 1031,3 10 -
21.11.2020 03:00:00 11,3 8,0 - - 29 16 - - SW 1031,5 30 -
21.11.2020 02:00:00 11,2 8,4 - - 22 12 - - SW 1031,7 10 -
21.11.2020 01:00:00 11,2 8,5 - - 26 14 - - SW 1032,2 10 -
21.11.2020 00:00:00 11,2 9,1 - - 24 13 - - SW 1032,4 10 -
20.11.2020 23:00:00 11,0 9,4 - - 26 14 - - SW 1033,0 10 -
20.11.2020 22:00:00 10,7 9,4 - - 29 16 - - WSW 1033,2 10 -
20.11.2020 21:00:00 10,6 9,8 - - 22 12 - - SW 1033,7 20 -
20.11.2020 20:00:00 10,6 9,3 - - 21 11 - - SW 1033,9 10 -
20.11.2020 19:00:00 10,7 9,2 - - 24 13 - - WSW 1033,9 10 -
20.11.2020 18:00:00 10,2 9,7 - - 24 13 - - W 1034,2 5 -
20.11.2020 17:00:00 10,6 9,6 - - 21 11 - - WSW 1034,2 10 -
20.11.2020 16:00:00 10,2 9,4 - - 22 12 - - SW 1033,9 10 -
20.11.2020 15:00:00 9,7 9,0 - - 21 11 - - SW 1034,5 9 -
20.11.2020 14:00:00 10,3 8,6 - - 26 14 - - WSW 1035,0 10 -
20.11.2020 13:00:00 10,2 9,5 - - 22 12 - - SW 1035,4 10 -
20.11.2020 12:00:00 10,0 8,9 - - 15 8 - - SW 1036,0 10 -
20.11.2020 11:00:00 10,0 8,9 - - 16 9 - - WSW 1036,5 20 -
20.11.2020 10:00:00 10,4 8,1 - - 18 10 - - WSW 1036,3 10 -
20.11.2020 09:00:00 10,1 7,1 10,9 12,9 13 7 - - WSW 1036,2 10 -
20.11.2020 08:00:00 8,7 6,0 - - 9 5 - - WSW 1036,7 45 -
20.11.2020 07:00:00 7,9 5,0 - - 5 3 - - WSW 1036,4 10 -
20.11.2020 06:00:00 7,7 3,9 - - 4 2 - - WSW 1036,1 10 0,0
20.11.2020 05:00:00 8,5 3,7 - - 8 4 - - WNW 1036,5 10 -
20.11.2020 04:00:00 8,1 4,6 - - 4 2 - - - 1036,9 10 -
20.11.2020 03:00:00 8,1 4,0 - - 9 5 - - NW 1037,3 10 -
20.11.2020 02:00:00 8,9 3,0 - - 8 4 - - NW 1037,3 10 -
20.11.2020 01:00:00 8,6 3,7 - - 9 5 - - NW 1037,9 45 -
20.11.2020 00:00:00 8,7 3,4 - - 9 5 - - NNW 1038,0 10 0,0
19.11.2020 23:00:00 9,0 3,1 - - 13 7 - - NNW 1038,1 45 -
19.11.2020 22:00:00 8,6 2,5 - - 11 6 - - NW 1037,3 10 -
19.11.2020 21:00:00 2,6 3,0 - - 9 5 - - NW 1037,1 45 -
19.11.2020 20:00:00 8,6 2,9 - - 13 7 - - NW 1036,8 10 -
19.11.2020 19:00:00 9,0 2,2 - - 15 8 - - NW 1036,2 10 -
19.11.2020 18:00:00 9,5 3,2 - - 18 10 - - NW 1036,4 10 0,0
19.11.2020 17:00:00 9,5 3,0 - - 16 9 - - NW 1035,9 45 -
19.11.2020 16:00:00 9,9 3,4 - - 22 12 - - WNW 1034,9 10 -
19.11.2020 15:00:00 10,6 3,3 - - 24 13 - - NW 1034,0 10 -
19.11.2020 14:00:00 10,8 3,0 - - 26 14 - - NW 1033,7 10 -
19.11.2020 13:00:00 10,9 3,7 - - 29 16 50 27 NW 1033,8 10 -
19.11.2020 12:00:00 11,1 3,9 - - 31 17 50 27 NW 1033,1 10 0,0
19.11.2020 11:00:00 10,3 3,8 - - 31 17 54 29 NW 1032,2 30 -
19.11.2020 10:00:00 10,9 3,9 - - 37 20 61 33 WNW 1031,3 10 -
19.11.2020 09:00:00 10,3 3,5 11,7 12,9 37 20 63 34 WNW 1030,2 10 -
19.11.2020 08:00:00 10,3 3,4 - - 37 20 59 32 WNW 1029,1 10 -
19.11.2020 07:00:00 10,7 3,6 - - 37 20 54 29 WNW 1027,9 10 -
19.11.2020 06:00:00 10,9 4,2 - - 39 21 59 32 WNW 1027,2 10 -
19.11.2020 05:00:00 10,8 4,3 - - 39 21 59 32 W 1026,7 10 -
19.11.2020 04:00:00 11,0 5,3 - - 35 19 61 33 W 1026,1 10 -
19.11.2020 03:00:00 10,9 3,8 - - 39 21 57 31 W 1025,9 10 -
19.11.2020 02:00:00 10,5 4,3 - - 35 19 54 29 W 1025,3 30 -
19.11.2020 01:00:00 10,3 4,9 - - 37 20 54 29 W 1025,1 30 -
19.11.2020 00:00:00 10,4 3,3 - - 37 20 54 29 W 1024,6 10 -
18.11.2020 23:00:00 10,5 4,7 - - 29 16 52 28 W 1024,1 10 -

tt = temperature
td = dewpoint
tt -20cm = temperature -20cm
tt -100cm = temperature -100cm
ff = wind speed
fx = gusts
dd = wind direction
ppp = reduced air pressure
vv = visibility
rr = precipitation

Next stations